Location: Helion Bumpstead
(52.0500°N, 0.4000°E)
Time: 20:38:02
(UTC+00:00)

NOSS 2-2 (E) - Pass Details

Date: 15 November 2025
Orbit: 385 x 1723 km, 63.3° (Epoch: 14 December)

Event Time Altitude Azimuth Distance (km) Brightness Sun altitude
Exits shadow 05:57:07 15° 319° (NW) 1,383 4.9 -12.4°
Maximum altitude 06:00:03 74° 43° (NE) 592 3.5 -12.0°
Drops below altitude 10° 06:04:53 10° 129° (SE) 2,204 7.6 -11.3°
Sets 06:07:42 0° 131° (SE) 3,352 8.6 -10.9°
